Tracking 31027 objects as of 19-Jul-2025
HD Live streaming from Space Station
objects crossing your sky now

BLOCK DM-SL R/B

Track BLOCK DM-SL R/B now!


NORAD ID: 38357
Int'l Code: 2012-030B
Perigee: 740.9 km
Apogee: 35,669.7 km
Inclination: 0.4 °
Period: 639.0 minutes
Semi major axis: 24576 km
RCS: 20.6934 m2 (large)
Launch date: June 1, 2012
Source: Sea Launch (SEAL)
Launch site: SEA LAUNCH (SEAL)

Note: This is a ROCKET BODY
Your satellite tracking list
COSMOS 2251 DEB
Track 1 satellite(s)




NASA's NSSDC Master Catalog

Two Line Element Set (TLE):
1 38357U 12030B   25199.06929120 -.00000151  00000-0 -81978-3 0  9992
2 38357   0.4168 312.3929 7106210 319.9893  15.2924  2.25334910108107
Source of the keplerian elements: AFSPC